Volver al catálogo

STARLINK-32134

ActivoComunicacionesVLEO
NORAD 60300·PAYLOAD·🇺🇸 United States

Lanzado Jul 28, 2024 desde Cape Canaveral Space Force Station

Loading…

Próximos Pases (próximas 24 horas)

TLE

ActualizadoSource: CelesTrak SupGP

Época: Sep 14, 2026, 22:33 UTC

1 60300C 24132Y   26257.94006944  .00043499  00000+0  12851-2 0  2573
2 60300  53.1564 251.3572 0001246 101.1459 272.8498 15.34371977    12

Sigue STARLINK-32134 en tiempo real con AllMySat

Download on the App Store